{"data":{"norad_id":53062,"epoch":"2026-05-25T01:35:13.792704Z","epoch_age_seconds":63349,"freshness":"FRESH","line1":"1 53062U 22077V   26145.06613186 -.00002022  00000+0 -13611-3 0  9995","line2":"2 53062  97.4478 325.0664 0001200 103.1130 257.0231 15.05659040212409","mean_motion":15.0565904,"eccentricity":0.00012,"inclination_deg":97.4478,"raan_deg":325.0664,"arg_perigee_deg":103.113,"mean_anomaly_deg":257.0231,"bstar":-0.00013611,"rev_number":21240,"period_min":95.639182693048,"perigee_km":548.6521104231,"apogee_km":550.31473932507,"semimajor_km":6927.6204248741,"source":"CELESTRAK","updated_at":"2026-05-25T13:38:17.309598Z"}}